Weather History for Hutchinson, KS

Change the Weather History Date:

Sunday, September 1, 2013

  Actual Average Record
Temperature  
Mean Temperature 80 °F -  
Max Temperature 91 °F 87 °F 107 °F (2011)
Min Temperature 66 °F 61 °F 55 °F (2004)
Cooling Degree Days 15    
Growing Degree Days 30 (Base 50)    
Moisture  
Dew Point 64 °F    
Average Humidity 59    
Maximum Humidity 71    
Minimum Humidity 45    
Precipitation  
Precipitation 0.00 in - - ()
Sea Level Pressure  
Sea Level Pressure 29.85 in    
Wind  
Wind Speed 7 mph (North)    
Max Wind Speed 20 mph    
Max Gust Speed 30 mph    
Visibility 10 miles    
Events      
Averages and records for this station are not official NWS values.
T = Trace of Precipitation, MM = Missing Value Source: NWS Daily Summary

Daily Weather History Graph

Daily Weather History Graph

Search for Another Location

Airport:

Trip Planner

Search our weather history database for the weather conditions in past years. The results will help you decide how hot, cold, wet, or windy it might be!

Date:

Astronomy

Sep. 01, 2013 Rise Set
Actual Time 7:01 AM CDT 8:00 PM CDT
Civil Twilight 6:34 AM CDT 8:27 PM CDT
Nautical Twilight 6:02 AM CDT 8:59 PM CDT
Astronomical Twilight 5:29 AM CDT 9:32 PM CDT
Moon 3:26 AM CDT (9/1) 5:37 PM CDT (9/1)
Length of Visible Light 13h 52m
Length of Day
12h 59m
Waning Crescent, 13% of the Moon is Illuminated
Sep 1
Waning Crescent
Sep 5
New
Sep 12
First Quarter
Sep 19
Full
Sep 26
Last Quarter

Hourly Weather History & Observations

Time (CDT) Temp. Heat Index Dew Point Humidity Pressure Visibility Wind Dir Wind Speed Gust Speed Precip Events Conditions
12:52 AM 80.1 °F 81.9 °F 64.9 °F 60% 29.74 in 10.0 mi ESE 3.5 mph - N/A   Clear
1:52 AM 79.0 °F - 64.9 °F 62% 29.74 in 10.0 mi SE 3.5 mph - N/A   Clear
2:52 AM 75.9 °F - 66.0 °F 71% 29.73 in 10.0 mi SE 4.6 mph - N/A   Clear
3:52 AM 78.1 °F - 64.9 °F 64% 29.75 in 10.0 mi WNW 3.5 mph - N/A   Clear
4:52 AM 82.0 °F 83.4 °F 64.0 °F 54% 29.76 in 10.0 mi NW 19.6 mph 29.9 mph N/A   Clear
5:52 AM 80.1 °F 81.9 °F 64.9 °F 60% 29.76 in 10.0 mi NNW 10.4 mph - N/A   Clear
6:52 AM 78.1 °F - 63.0 °F 60% 29.75 in 10.0 mi North 5.8 mph - N/A   Clear
7:52 AM 78.1 °F - 62.1 °F 58% 29.83 in 10.0 mi North 8.1 mph - N/A   Mostly Cloudy
8:52 AM 78.1 °F - 63.0 °F 60% 29.85 in 10.0 mi NNE 8.1 mph - N/A   Scattered Clouds
9:52 AM 77.0 °F - 64.0 °F 64% 29.88 in 10.0 mi WNW 6.9 mph - N/A   Mostly Cloudy
10:52 AM 79.0 °F - 66.9 °F 66% 29.89 in 10.0 mi North 6.9 mph - N/A   Clear
11:52 AM 77.0 °F - 66.9 °F 71% 29.91 in 10.0 mi NW 5.8 mph - N/A   Overcast
12:52 PM 82.0 °F 85.5 °F 69.1 °F 65% 29.91 in 10.0 mi North 9.2 mph 29.9 mph N/A   Clear
1:52 PM 86.0 °F 90.7 °F 70.0 °F 59% 29.90 in 10.0 mi NNW 12.7 mph 17.3 mph 0.00 in   Clear
2:52 PM 88.0 °F 92.9 °F 70.0 °F 55% 29.88 in 10.0 mi North 11.5 mph 18.4 mph N/A   Clear
3:52 PM 90.0 °F 95.4 °F 70.0 °F 52% 29.87 in 10.0 mi North 9.2 mph 16.1 mph N/A   Scattered Clouds
4:52 PM 90.0 °F 92.8 °F 66.9 °F 46% 29.87 in 10.0 mi North 10.4 mph - N/A   Partly Cloudy
5:52 PM 89.1 °F 91.0 °F 64.9 °F 45% 29.87 in 10.0 mi North 9.2 mph 17.3 mph N/A   Clear
6:52 PM 86.0 °F 86.8 °F 63.0 °F 46% 29.87 in 10.0 mi North 8.1 mph - N/A   Clear
7:52 PM 81.0 °F 82.2 °F 63.0 °F 54% 29.89 in 10.0 mi North 6.9 mph - N/A   Clear
8:52 PM 75.9 °F - 57.9 °F 54% 29.92 in 10.0 mi NNE 5.8 mph - N/A   Clear
9:52 PM 73.0 °F - 57.0 °F 57% 29.96 in 10.0 mi NNE 5.8 mph - N/A   Clear
10:52 PM 70.0 °F - 57.0 °F 63% 29.98 in 10.0 mi NNE 3.5 mph - N/A   Clear
11:52 PM 66.9 °F - 55.9 °F 68% 29.99 in 10.0 mi NNE 4.6 mph - N/A   Clear